Wind_Speed
8 8 9 9 10 9 9 9 7 6 5 4 5 6 8 8 7 8 8 8 8 8 8 8 7 7 7 7 7 6 6 6 6 7 7 8 9 9 9 9 10 10 10 10 10 9 9 9 8
9 9 10 11 11 12 11 11 9 8 6 6 6 8 9 10 9 9 10 10 10 10 9 9 9 9 8 8 8 8 7 7 8 8 9 9 10 10 11 11 11 11 11 11 10 10 10 9 9
11 11 12 12 13 13 13 11 10 9 8 8 8 9 10 11 11 12 12 12 11 11 11 11 10 9 9 9 9 9 9 9 9 10 11 11 12 12 12 12 12 13 12 12 11 11 11 10 10
12 13 14 14 15 15 14 13 11 11 10 9 10 11 11 12 14 14 14 13 12 12 12 11 11 10 9 9 9 10 10 10 11 12 12 13 13 13 13 13 14 14 13 13 13 12 12 12 11
14 14 15 16 16 17 16 16 14 13 12 11 11 11 13 14 15 15 15 14 13 13 13 12 11 11 10 10 10 11 11 12 12 13 13 14 15 15 15 15 15 15 14 14 14 14 13 13 13
14 16 17 17 18 19 19 18 16 15 14 12 12 12 13 15 16 15 14 14 14 14 13 13 12 11 11 11 12 12 13 13 14 14 15 15 15 16 16 16 16 16 16 16 16 15 15 14 14
15 17 19 20 21 21 20 19 19 18 17 15 14 14 15 16 15 14 15 15 15 14 14 14 13 13 12 12 13 13 14 14 15 15 16 16 16 17 17 17 18 17 17 17 17 17 16 16 16
17 18 20 22 23 23 22 21 20 19 17 16 15 15 16 16 15 15 15 15 16 15 16 16 16 14 14 14 14 14 14 15 16 16 16 17 17 18 18 18 18 18 18 18 19 18 18 18 17
18 20 22 24 24 24 23 22 21 20 19 18 17 16 17 17 17 17 16 16 16 16 17 18 18 16 15 15 16 16 15 16 16 16 16 17 18 18 18 18 19 20 20 20 20 20 20 19 19
19 21 24 25 25 26 25 23 22 21 21 20 18 17 17 17 17 17 17 17 17 18 18 19 19 18 17 16 17 17 17 17 17 17 18 18 19 19 19 19 19 20 20 21 21 21 21 21 20
19 22 24 25 26 26 27 25 23 22 22 20 19 18 18 18 17 17 17 18 19 19 19 20 20 19 18 17 17 17 17 17 18 18 19 19 20 20 21 21 21 21 22 22 22 22 22 22 22
20 22 25 26 26 26 26 26 25 24 22 21 20 20 20 18 18 18 19 20 21 21 20 21 21 20 19 19 18 18 18 18 18 18 19 20 20 21 22 22 23 23 23 23 24 24 23 23 22
21 23 24 24 25 26 26 26 25 24 23 22 21 21 21 20 19 19 20 21 21 21 21 21 22 20 20 20 20 19 19 20 20 20 20 20 21 21 22 23 24 25 25 25 25 25 24 24 23
22 23 23 24 25 26 27 26 25 24 24 24 23 22 21 20 19 19 20 20 21 21 21 21 20 20 20 20 21 20 20 19 20 20 21 21 22 23 23 23 23 24 25 25 25 25 25 25 24
22 23 23 25 26 27 27 26 25 25 25 25 24 23 20 19 20 20 20 20 21 21 21 20 20 20 20 20 21 21 20 20 21 21 22 22 23 23 23 24 24 25 24 24 24 24 25 25 24
22 23 24 26 27 28 27 25 25 25 25 25 23 22 21 21 21 22 21 20 20 21 21 21 20 20 20 20 20 20 20 20 21 22 22 23 23 24 24 24 24 25 25 24 24 24 24 25 24
23 24 24 26 27 28 28 26 26 26 26 25 23 22 22 21 21 21 20 20 21 22 22 22 21 20 20 20 21 20 20 20 21 23 23 24 23 24 24 25 25 24 25 25 25 26 25 25 25
22 23 24 24 26 27 27 27 27 26 26 25 23 22 22 21 21 20 19 21 21 21 20 21 21 19 19 19 21 20 20 21 21 23 24 24 24 24 24 25 25 24 24 25 25 26 26 26 26
21 22 23 24 25 26 27 27 26 26 26 25 24 23 22 20 20 20 20 21 20 18 18 18 19 20 19 19 20 21 21 22 23 23 24 25 24 24 24 24 23 23 22 23 24 25 26 26 26
20 21 22 22 24 26 27 27 27 27 26 25 24 23 21 21 21 20 21 20 20 20 19 19 19 19 19 20 21 22 22 22 24 24 24 24 24 23 24 24 23 23 22 23 24 25 26 26 26
21 21 21 22 24 26 27 27 26 26 25 24 23 22 21 22 22 22 21 21 21 20 19 19 20 20 21 21 21 22 22 23 24 24 24 24 23 23 23 23 23 23 23 23 23 24 25 26 26
20 21 22 22 23 24 26 27 25 25 24 23 23 22 22 22 23 22 22 23 22 21 21 20 20 21 21 22 22 23 23 23 24 24 23 24 24 24 24 24 24 24 23 23 24 25 26 26 27
20 21 22 22 23 24 24 27 25 24 24 24 23 23 23 24 24 23 23 23 22 21 21 21 21 21 22 23 23 23 24 24 25 24 24 24 24 24 24 25 25 25 25 25 25 26 26 27 27
20 22 22 23 24 25 24 26 24 23 23 23 23 23 23 25 25 24 24 24 23 23 24 23 23 23 23 24 24 24 25 26 25 25 26 26 26 26 26 25 26 26 25 25 25 25 25 26 26
20 21 23 24 24 24 24 26 24 23 24 23 23 23 23 23 23 24 24 25 24 25 25 25 26 25 23 23 23 24 25 26 26 26 27 27 28 28 27 26 26 26 26 25 25 25 26 26 25
21 21 23 25 25 24 25 26 25 24 25 24 24 24 24 23 22 23 25 24 25 26 26 25 25 25 25 24 24 25 25 26 26 27 28 28 27 27 26 26 27 27 26 25 25 25 26 26 26
20 21 23 25 26 26 26 26 25 25 25 24 25 24 25 23 23 23 24 24 25 25 26 26 25 25 26 25 25 25 25 26 26 27 28 28 28 27 26 26 27 26 26 25 25 26 24 24 24
20 20 22 24 26 27 25 24 24 23 24 24 24 24 24 23 23 22 23 24 24 24 25 25 25 25 25 25 25 25 25 25 26 27 28 28 28 27 26 26 27 27 26 26 25 25 24 23 23
19 20 20 22 23 24 24 22 21 22 22 22 23 22 22 22 22 22 22 22 22 23 25 24 24 24 24 25 25 25 25 25 26 27 27 27 27 27 26 26 26 26 26 26 25 24 24 23 24
19 19 19 20 20 21 23 21 19 22 22 21 21 21 21 22 21 21 21 21 22 23 23 23 23 23 23 24 24 25 25 25 26 26 27 26 26 26 26 25 25 26 25 25 24 24 24 24 24
Wind_Direction
227 229 232 233 237 242 246 259 267 273 284 298 314 328 340 337 334 327 319 318 311 301 296 294 292 296 300 303 307 310 313 318 321 321 319 317 317 316 316 317 317 316 316 317 317 319 320 323 324
226 229 231 235 238 242 249 261 262 267 277 286 302 318 329 332 328 324 316 312 306 298 289 288 286 289 293 295 300 302 305 307 308 308 309 309 309 309 309 308 309 309 309 310 311 312 314 315 315
224 227 230 234 239 244 251 259 261 265 274 282 296 314 322 323 324 319 312 307 299 293 285 283 282 282 288 293 296 297 297 298 301 301 302 302 302 303 305 303 306 305 303 303 304 305 306 307 307
225 227 229 232 237 244 248 254 255 260 272 280 294 306 314 315 313 311 305 301 295 289 286 283 281 279 283 289 292 292 293 294 296 298 299 300 300 300 300 299 300 302 299 299 298 298 299 299 298
225 227 229 233 238 244 249 252 253 256 266 277 288 298 306 306 305 303 300 294 291 289 287 281 280 280 282 284 287 290 291 293 294 295 297 297 297 298 296 296 295 295 294 294 294 294 294 292 292
225 227 229 233 238 243 249 251 253 255 262 272 284 292 300 300 301 297 295 292 289 288 284 279 281 284 285 285 288 290 288 290 292 292 295 295 294 294 294 292 292 290 289 289 290 290 291 289 287
226 226 228 233 239 243 248 251 251 256 264 273 285 292 297 299 296 291 288 289 286 283 279 278 284 285 286 287 289 290 287 287 290 290 291 292 292 291 292 291 289 287 286 285 285 285 286 286 284
227 227 227 232 238 242 247 250 254 260 266 275 282 289 293 294 291 288 286 288 285 281 277 279 281 281 284 285 286 286 286 287 288 288 289 290 290 289 290 290 288 286 285 283 283 281 281 281 281
228 227 228 233 237 242 247 250 255 262 268 274 279 284 288 290 288 285 284 285 282 278 278 278 278 279 281 284 285 285 284 285 287 287 288 290 289 288 285 287 288 286 284 282 281 279 278 278 278
228 228 230 235 239 244 249 253 257 262 269 275 279 284 287 287 288 286 286 285 281 276 276 276 276 277 280 284 284 284 284 284 286 287 287 290 290 287 285 285 286 286 284 282 280 279 278 275 275
230 231 234 236 241 245 250 255 259 264 269 275 279 281 286 287 285 285 284 281 277 275 275 274 273 275 276 280 281 281 283 284 285 287 287 289 288 286 285 284 283 284 283 281 279 277 276 274 274
233 235 237 239 243 246 250 255 259 264 270 276 278 281 284 286 286 284 281 279 278 274 272 272 272 273 274 277 281 282 282 283 285 286 288 289 289 288 287 284 283 282 281 279 277 274 273 270 272
236 239 243 244 246 249 253 257 262 267 273 276 281 285 285 283 281 280 280 278 277 274 274 275 271 269 271 274 282 283 279 279 282 285 286 288 290 292 291 287 283 282 281 278 274 271 271 269 270
240 243 246 247 249 253 255 257 264 270 274 277 282 285 285 281 276 276 278 279 276 277 277 276 269 265 267 272 278 279 275 276 280 284 287 287 289 291 290 288 287 286 282 277 274 271 270 268 269
243 244 246 248 251 255 258 259 263 270 274 277 280 281 280 277 275 276 278 278 278 278 276 275 268 263 266 271 275 276 274 274 278 282 285 286 288 288 288 286 284 283 282 278 275 271 271 269 270
244 245 245 249 252 256 259 260 264 270 273 276 278 278 275 277 278 278 278 278 278 276 274 273 266 265 266 268 269 271 271 274 277 281 285 286 286 286 287 286 283 281 279 276 272 271 270 268 269
246 247 248 250 253 256 259 261 265 268 271 273 274 276 277 277 278 279 279 280 280 275 272 269 268 268 266 264 266 269 271 275 277 282 286 285 285 287 286 286 284 281 276 272 269 268 267 267 268
248 249 251 252 255 258 261 263 265 267 268 270 272 275 278 278 276 278 282 283 283 277 272 270 267 267 265 263 267 270 274 278 282 285 287 286 285 285 285 285 284 280 275 270 267 264 264 266 266
251 252 253 253 256 259 261 262 263 264 265 267 272 275 276 275 276 279 284 284 285 279 276 271 267 266 265 265 269 272 277 281 284 285 285 285 287 286 285 285 283 279 276 270 265 265 264 265 265
252 253 255 255 256 259 259 260 262 263 265 267 271 273 275 275 277 282 287 286 283 279 274 271 271 267 266 268 272 274 277 282 285 284 285 285 286 287 285 284 282 278 276 273 270 270 266 265 264
254 256 257 258 259 261 262 261 263 265 269 270 272 275 274 275 276 280 286 288 285 279 277 275 272 270 269 271 271 273 277 279 282 283 283 284 286 287 286 284 283 281 278 276 271 269 266 263 263
258 259 259 261 262 264 266 266 265 267 271 272 274 277 277 278 280 284 287 287 285 280 277 274 273 272 271 271 272 275 278 280 281 284 284 285 285 285 285 284 282 280 277 275 272 269 267 265 264
261 259 261 262 264 265 267 270 270 270 272 274 276 278 277 279 281 283 287 289 284 278 275 276 275 273 272 272 273 276 278 279 281 284 285 287 287 286 286 285 282 279 277 275 273 270 267 265 264
266 265 266 266 266 266 269 272 274 274 275 277 278 279 278 278 279 281 285 286 280 276 275 274 275 276 277 277 276 277 278 279 281 283 285 286 287 286 285 285 281 279 276 273 273 271 268 265 262
271 271 270 268 267 270 272 273 278 278 277 278 280 280 281 280 280 282 284 285 281 279 277 273 274 276 277 277 277 278 279 279 280 281 283 285 286 285 283 283 281 276 274 272 272 272 270 266 262
274 272 272 273 274 275 273 274 279 279 278 278 279 278 280 281 279 281 283 281 280 279 277 276 275 274 277 277 278 278 279 278 280 283 284 284 285 285 284 282 279 278 275 273 272 273 270 267 263
277 276 275 276 276 278 278 278 279 279 277 277 279 279 280 278 280 283 283 281 279 277 277 275 275 274 275 275 277 277 278 279 281 283 284 283 282 282 282 281 279 277 274 272 273 273 272 267 265
279 278 277 276 279 283 283 280 282 283 281 279 280 280 281 280 279 281 281 278 277 276 276 274 274 275 275 275 275 274 276 278 280 283 284 283 281 280 280 279 277 275 272 271 272 271 269 268 267
280 278 280 280 279 282 285 285 284 284 282 282 281 281 282 281 280 280 280 277 277 276 277 273 272 274 276 275 273 273 276 279 280 281 282 281 280 279 278 279 277 275 272 270 271 269 267 267 266
282 281 283 283 281 282 285 287 287 287 284 285 283 281 280 279 279 279 281 280 277 278 279 279 275 275 276 276 274 275 278 279 280 281 282 281 280 279 278 277 275 274 273 271 270 268 267 267 266
Height
5893 5894 5895 5896 5897 5898 5898 5899 5900 5900 5902 5903 5903 5904 5904 5905 5906 5908 5906 5904 5904 5904 5904 5904 5903 5902 5902 5902 5901 5901 5901 5902 5902 5902 5902 5903 5903 5903 5903 5902 5902 5902 5902 5901 5901 5900 5900 5900 5899
5892 5893 5895 5895 5896 5896 5897 5898 5899 5900 5901 5901 5902 5903 5903 5903 5903 5903 5903 5903 5903 5903 5903 5902 5902 5901 5901 5901 5900 5900 5900 5900 5900 5901 5901 5901 5901 5901 5901 5901 5901 5901 5901 5900 5900 5900 5900 5899 5899
5891 5892 5894 5894 5894 5895 5896 5897 5898 5898 5900 5900 5901 5901 5901 5901 5902 5902 5901 5901 5901 5901 5901 5901 5901 5900 5900 5900 5899 5899 5899 5899 5899 5899 5899 5899 5899 5899 5899 5899 5899 5899 5899 5899 5899 5899 5899 5898 5898
5890 5891 5892 5893 5893 5894 5895 5896 5897 5897 5898 5899 5899 5900 5900 5900 5900 5900 5900 5899 5899 5900 5900 5900 5899 5899 5898 5898 5898 5898 5897 5897 5897 5897 5897 5897 5897 5897 5897 5897 5897 5897 5897 5897 5897 5897 5897 5897 5897
5888 5890 5891 5891 5891 5892 5893 5894 5895 5896 5896 5897 5898 5898 5898 5898 5898 5898 5898 5898 5898 5898 5898 5897 5897 5897 5897 5896 5896 5896 5896 5896 5896 5896 5895 5895 5895 5895 5895 5895 5894 5894 5895 5895 5895 5895 5895 5895 5895
5887 5888 5889 5889 5889 5890 5891 5893 5894 5894 5895 5895 5896 5896 5896 5896 5896 5896 5896 5896 5896 5896 5895 5895 5895 5895 5895 5894 5894 5894 5894 5894 5894 5894 5893 5893 5893 5893 5893 5892 5892 5892 5892 5892 5893 5893 5893 5893 5893
5885 5886 5886 5887 5887 5888 5890 5891 5891 5892 5893 5893 5894 5895 5894 5894 5894 5894 5894 5894 5894 5893 5893 5893 5893 5893 5892 5892 5892 5892 5891 5891 5891 5891 5891 5891 5890 5890 5890 5890 5890 5890 5889 5889 5890 5890 5890 5890 5891
5882 5884 5884 5884 5885 5886 5888 5888 5889 5890 5890 5891 5892 5892 5892 5892 5892 5891 5891 5891 5891 5891 5891 5891 5891 5890 5890 5890 5889 5889 5889 5889 5889 5888 5888 5888 5887 5887 5887 5887 5887 5887 5886 5886 5886 5887 5887 5887 5887
5880 5882 5881 5882 5883 5884 5885 5886 5887 5888 5888 5889 5889 5890 5889 5889 5888 5888 5888 5888 5888 5888 5888 5888 5888 5887 5887 5887 5887 5886 5886 5886 5886 5885 5885 5885 5884 5884 5884 5884 5883 5883 5883 5883 5883 5883 5883 5883 5884
5877 5878 5878 5880 5880 5881 5882 5883 5884 5885 5886 5886 5887 5887 5886 5886 5885 5885 5885 5885 5885 5885 5885 5884 5884 5884 5884 5884 5884 5883 5883 5883 5883 5882 5882 5881 5881 5880 5880 5880 5880 5879 5879 5879 5879 5879 5879 5880 5880
5874 5875 5876 5877 5878 5879 5879 5881 5882 5883 5883 5884 5884 5883 5883 5883 5882 5882 5882 5882 5882 5881 5881 5881 5880 5880 5880 5880 5880 5880 5880 5880 5879 5879 5878 5878 5877 5876 5876 5876 5875 5875 5875 5874 5874 5875 5875 5875 5876
5872 5872 5873 5874 5876 5877 5877 5878 5879 5880 5881 5881 5880 5880 5880 5879 5879 5878 5878 5878 5877 5877 5876 5876 5876 5876 5876 5876 5876 5876 5876 5876 5875 5875 5874 5873 5873 5872 5871 5871 5871 5871 5870 5870 5870 5870 5870 5870 5871
5869 5869 5871 5872 5873 5874 5875 5876 5876 5876 5877 5877 5877 5876 5876 5876 5875 5874 5874 5874 5873 5872 5872 5872 5872 5872 5872 5872 5872 5872 5872 5871 5871 5871 5870 5869 5868 5868 5867 5866 5866 5865 5864 5864 5864 5864 5865 5865 5866
5867 5867 5868 5870 5870 5871 5872 5873 5874 5873 5873 5873 5873 5873 5872 5871 5871 5870 5870 5870 5869 5868 5867 5866 5866 5867 5867 5868 5868 5867 5867 5867 5867 5866 5865 5865 5864 5863 5862 5862 5860 5860 5859 5859 5858 5859 5859 5860 5861
5864 5865 5866 5867 5867 5868 5869 5870 5870 5869 5869 5869 5869 5868 5867 5866 5866 5866 5866 5865 5865 5864 5863 5862 5861 5861 5862 5863 5863 5863 5862 5862 5862 5861 5861 5860 5859 5858 5857 5856 5855 5854 5854 5853 5853 5854 5854 5854 5855
5861 5862 5863 5864 5864 5864 5866 5866 5866 5865 5865 5865 5864 5864 5863 5862 5862 5861 5861 5861 5860 5859 5858 5857 5856 5856 5857 5858 5858 5858 5858 5858 5858 5857 5856 5855 5854 5853 5852 5851 5850 5848 5848 5847 5848 5848 5848 5849 5849
5857 5859 5859 5860 5860 5860 5861 5862 5862 5861 5861 5861 5861 5860 5859 5859 5858 5857 5856 5856 5855 5853 5852 5851 5851 5852 5852 5853 5853 5853 5853 5853 5853 5852 5851 5849 5848 5848 5846 5845 5844 5843 5842 5842 5842 5842 5842 5843 5844
5853 5854 5855 5856 5855 5856 5856 5857 5858 5857 5857 5857 5857 5856 5856 5855 5854 5853 5852 5851 5849 5847 5846 5846 5847 5847 5847 5848 5849 5849 5849 5848 5847 5847 5846 5844 5843 5842 5841 5839 5838 5837 5836 5836 5836 5836 5837 5837 5837
5850 5850 5851 5852 5851 5851 5852 5852 5853 5853 5853 5853 5853 5853 5852 5851 5850 5849 5848 5847 5846 5845 5844 5843 5843 5844 5844 5844 5844 5844 5843 5843 5842 5841 5840 5839 5837 5836 5835 5833 5832 5831 5830 5830 5830 5830 5830 5831 5831
5846 5846 5847 5848 5847 5847 5847 5847 5848 5848 5849 5849 5849 5848 5848 5847 5846 5845 5844 5843 5841 5840 5839 5838 5838 5838 5839 5839 5839 5839 5838 5838 5837 5836 5834 5833 5831 5830 5829 5828 5826 5825 5825 5824 5824 5824 5824 5824 5825
5842 5842 5843 5843 5842 5842 5842 5843 5844 5844 5844 5844 5844 5844 5843 5842 5841 5840 5840 5839 5836 5835 5834 5834 5833 5833 5833 5834 5833 5833 5833 5832 5831 5830 5829 5827 5826 5825 5823 5822 5821 5820 5819 5818 5818 5818 5818 5818 5818
5838 5839 5838 5838 5838 5838 5838 5837 5840 5839 5839 5839 5839 5839 5838 5837 5836 5835 5834 5833 5831 5830 5829 5828 5828 5828 5828 5828 5828 5827 5827 5826 5826 5824 5823 5822 5820 5819 5817 5816 5815 5813 5813 5812 5812 5812 5812 5812 5812
5834 5834 5834 5834 5833 5833 5833 5832 5834 5834 5834 5834 5833 5833 5833 5832 5831 5830 5829 5827 5826 5825 5824 5823 5822 5822 5822 5822 5822 5821 5821 5820 5819 5818 5817 5816 5814 5813 5811 5810 5809 5807 5806 5806 5805 5805 5805 5805 5805
5830 5830 5830 5829 5829 5829 5829 5827 5828 5828 5828 5828 5827 5827 5826 5826 5825 5824 5823 5821 5820 5820 5819 5818 5818 5817 5816 5816 5815 5815 5814 5813 5813 5812 5811 5809 5808 5806 5805 5803 5802 5801 5800 5799 5799 5798 5798 5798 5798
5826 5826 5825 5824 5824 5824 5824 5822 5823 5823 5823 5822 5822 5821 5821 5819 5819 5818 5817 5816 5815 5814 5813 5813 5812 5812 5811 5810 5809 5808 5807 5807 5806 5805 5804 5802 5801 5799 5798 5797 5795 5794 5793 5792 5791 5791 5791 5791 5791
5822 5822 5821 5820 5819 5819 5818 5817 5819 5817 5817 5816 5816 5816 5815 5814 5813 5812 5811 5810 5809 5808 5807 5807 5806 5805 5805 5804 5803 5802 5801 5800 5799 5797 5796 5795 5794 5792 5790 5789 5788 5787 5786 5785 5785 5784 5783 5784 5784
5817 5816 5816 5815 5813 5813 5812 5812 5812 5811 5811 5811 5810 5809 5809 5808 5807 5806 5805 5804 5803 5802 5801 5800 5799 5798 5798 5797 5796 5795 5793 5792 5792 5790 5789 5788 5786 5785 5783 5782 5781 5780 5779 5779 5778 5777 5776 5776 5777
5813 5812 5811 5810 5808 5807 5807 5807 5807 5806 5805 5805 5805 5804 5803 5802 5801 5801 5800 5798 5797 5796 5795 5793 5792 5791 5790 5789 5788 5787 5786 5785 5784 5783 5782 5780 5778 5777 5776 5775 5774 5773 5773 5772 5771 5771 5770 5770 5770
5809 5808 5806 5805 5804 5802 5801 5804 5802 5800 5799 5799 5799 5798 5797 5796 5795 5794 5793 5792 5791 5790 5788 5787 5786 5785 5783 5781 5781 5780 5779 5778 5777 5776 5774 5773 5771 5770 5769 5767 5767 5766 5765 5765 5764 5764 5764 5764 5764
5803 5802 5802 5801 5799 5798 5797 5800 5797 5795 5794 5793 5792 5792 5791 5790 5789 5788 5787 5786 5785 5784 5782 5781 5779 5777 5776 5775 5773 5773 5772 5771 5770 5768 5767 5765 5764 5763 5761 5760 5760 5759 5758 5758 5757 5757 5757 5757 5757